| time (UTC) | temp F | wind direction | speed knots | gust knots | rain 1hr in | rain 24hr in | rain mn in | humidity % | barometer mb |
| 20260831210843 | 86 | 220 | 1.7 | 4.3 | 0.00 | 0.00 | 0.00 | 37 | 1016.3 |
| 20260831205922 | 86 | 222 | 2.6 | 4.3 | 0.00 | 0.00 | 0.00 | 36 | 1016.2 |
| 20260831205022 | 87 | 235 | 1.7 | 5.2 | 0.00 | 0.00 | 0.00 | 35 | 1016.0 |
| 20260831204122 | 88 | 237 | 1.7 | 4.3 | 0.00 | 0.00 | 0.00 | 33 | 1015.8 |
| 20260831203243 | 89 | 251 | 2.6 | 6.1 | 0.00 | 0.00 | 0.00 | 32 | 1015.7 |
| 20260831202322 | 89 | 299 | 2.6 | 7.0 | 0.00 | 0.00 | 0.00 | 31 | 1015.5 |
| 20260831201422 | 89 | 275 | 4.3 | 8.7 | 0.00 | 0.00 | 0.00 | 31 | 1015.3 |
| 20260831200543 | 90 | 272 | 2.6 | 7.8 | 0.00 | 0.00 | 0.00 | 30 | 1015.2 |
| 20260831195621 | 90 | 275 | 3.5 | 7.8 | 0.00 | 0.00 | 0.00 | 30 | 1015.0 |
| 20260831194722 | 91 | 270 | 5.2 | 9.6 | 0.00 | 0.00 | 0.00 | 30 | 1014.8 |
| 20260831193821 | 91 | 270 | 5.2 | 8.7 | 0.00 | 0.00 | 0.00 | 30 | 1014.6 |
| 20260831192921 | 91 | 270 | 5.2 | 10.4 | 0.00 | 0.00 | 0.00 | 30 | 1014.4 |
| 20260831192022 | 92 | 274 | 4.3 | 9.6 | 0.00 | 0.00 | 0.00 | 29 | 1014.2 |
| 20260831191122 | 92 | 267 | 3.5 | 8.7 | 0.00 | 0.00 | 0.00 | 29 | 1014.2 |
| 20260831190221 | 93 | 269 | 4.3 | 7.8 | 0.00 | 0.00 | 0.00 | 29 | 1014.1 |
| 20260831185321 | 93 | 267 | 5.2 | 9.6 | 0.00 | 0.00 | 0.00 | 29 | 1014.1 |
| 20260831184421 | 94 | 262 | 4.3 | 9.6 | 0.00 | 0.00 | 0.00 | 29 | 1013.9 |
| 20260831183521 | 94 | 268 | 5.2 | 9.6 | 0.00 | 0.00 | 0.00 | 29 | 1013.9 |
| 20260831182621 | 95 | 272 | 5.2 | 10.4 | 0.00 | 0.00 | 0.00 | 30 | 1013.8 |
| 20260831181721 | 95 | 270 | 5.2 | 12.2 | 0.00 | 0.00 | 0.00 | 30 | 1013.9 |
| 20260831180842 | 95 | 272 | 5.2 | 12.2 | 0.00 | 0.00 | 0.00 | 30 | 1013.9 |
| 20260831175921 | 96 | 264 | 5.2 | 12.2 | 0.00 | 0.00 | 0.00 | 30 | 1013.9 |
| 20260831175021 | 96 | 266 | 6.1 | 11.3 | 0.00 | 0.00 | 0.00 | 30 | 1013.9 |
| 20260831174122 | 96 | 270 | 4.3 | 12.2 | 0.00 | 0.00 | 0.00 | 31 | 1013.9 |
| 20260831173221 | 96 | 237 | 5.2 | 9.6 | 0.00 | 0.00 | 0.00 | 35 | 1013.8 |
| 20260831172321 | 96 | 226 | 4.3 | 10.4 | 0.00 | 0.00 | 0.00 | 35 | 1013.8 |
| 20260831171421 | 96 | 219 | 4.3 | 9.6 | 0.00 | 0.00 | 0.00 | 34 | 1013.9 |
| 20260831170521 | 97 | 209 | 4.3 | 7.8 | 0.00 | 0.00 | 0.00 | 33 | 1013.9 |
| 20260831165621 | 97 | 208 | 3.5 | 9.6 | 0.00 | 0.00 | 0.00 | 31 | 1013.9 |
| 20260831164742 | 98 | 232 | 3.5 | 7.8 | 0.00 | 0.00 | 0.00 | 29 | 1013.8 |
| 20260831163821 | 98 | 224 | 4.3 | 7.0 | 0.00 | 0.00 | 0.00 | 30 | 1013.8 |
| 20260831162921 | 97 | 238 | 3.5 | 9.6 | 0.00 | 0.00 | 0.00 | 31 | 1013.9 |
| 20260831162021 | 98 | 236 | 3.5 | 8.7 | 0.00 | 0.00 | 0.00 | 32 | 1014.0 |
| 20260831161121 | 98 | 220 | 4.3 | 7.8 | 0.00 | 0.00 | 0.00 | 33 | 1014.1 |
| 20260831160221 | 97 | 242 | 4.3 | 8.7 | 0.00 | 0.00 | 0.00 | 33 | 1014.1 |
| 20260831155342 | 97 | 261 | 4.3 | 8.7 | 0.00 | 0.00 | 0.00 | 32 | 1014.1 |
| 20260831154442 | 98 | 249 | 3.5 | 8.7 | 0.00 | 0.00 | 0.00 | 32 | 1014.2 |
| 20260831153542 | 98 | 249 | 3.5 | 9.6 | 0.00 | 0.00 | 0.00 | 31 | 1014.2 |
| 20260831152621 | 98 | 203 | 2.6 | 7.0 | 0.00 | 0.00 | 0.00 | 29 | 1014.3 |
| 20260831151742 | 98 | 255 | 4.3 | 9.6 | 0.00 | 0.00 | 0.00 | 30 | 1014.3 |
| 20260831150821 | 98 | 231 | 3.5 | 8.7 | 0.00 | 0.00 | 0.00 | 31 | 1014.3 |
| 20260831145921 | 98 | 211 | 2.6 | 7.0 | 0.00 | 0.00 | 0.00 | 30 | 1014.3 |
| 20260831145042 | 98 | 213 | 3.5 | 7.0 | 0.00 | 0.00 | 0.00 | 29 | 1014.4 |
| 20260831144121 | 98 | 205 | 2.6 | 8.7 | 0.00 | 0.00 | 0.00 | 29 | 1014.5 |
| 20260831143221 | 98 | 257 | 2.6 | 7.0 | 0.00 | 0.00 | 0.00 | 30 | 1014.7 |
| 20260831142321 | 97 | 253 | 2.6 | 7.0 | 0.00 | 0.00 | 0.00 | 29 | 1014.8 |
| 20260831141420 | 97 | 224 | 2.6 | 7.8 | 0.00 | 0.00 | 0.00 | 29 | 1014.9 |
| 20260831140520 | 97 | 213 | 1.7 | 6.1 | 0.00 | 0.00 | 0.00 | 30 | 1015.0 |
| 20260831135621 | 96 | 264 | 2.6 | 3.5 | 0.00 | 0.00 | 0.00 | 31 | 1015.0 |
| 20260831134720 | 96 | 173 | 2.6 | 5.2 | 0.00 | 0.00 | 0.00 | 32 | 1015.1 |
| 20260831133820 | 96 | 253 | 2.6 | 5.2 | 0.00 | 0.00 | 0.00 | 31 | 1015.3 |
| 20260831132920 | 95 | 334 | 2.6 | 6.1 | 0.00 | 0.00 | 0.00 | 31 | 1015.3 |
| 20260831132020 | 95 | 293 | 2.6 | 7.0 | 0.00 | 0.00 | 0.00 | 32 | 1015.5 |
| 20260831131120 | 95 | 279 | 1.7 | 6.1 | 0.00 | 0.00 | 0.00 | 34 | 1015.5 |
| 20260831130220 | 94 | 248 | 2.6 | 6.1 | 0.00 | 0.00 | 0.00 | 34 | 1015.5 |
| 20260831125320 | 94 | 289 | 1.7 | 6.1 | 0.00 | 0.00 | 0.00 | 35 | 1015.6 |
| 20260831124420 | 94 | 267 | 1.7 | 6.1 | 0.00 | 0.00 | 0.00 | 35 | 1015.6 |
| 20260831123520 | 93 | 298 | 2.6 | 6.1 | 0.00 | 0.00 | 0.00 | 36 | 1015.8 |
| 20260831122641 | 92 | 273 | 2.6 | 7.8 | 0.00 | 0.00 | 0.00 | 36 | 1015.9 |
| 20260831121720 | 93 | 291 | 2.6 | 6.1 | 0.00 | 0.00 | 0.00 | 37 | 1016.0 |
| 20260831120820 | 92 | 254 | 2.6 | 6.1 | 0.00 | 0.00 | 0.00 | 37 | 1016.1 |
| 20260831115920 | 93 | 248 | 2.6 | 6.1 | 0.00 | 0.00 | 0.00 | 37 | 1016.3 |
| 20260831115020 | 92 | 255 | 1.7 | 6.1 | 0.00 | 0.00 | 0.00 | 37 | 1016.4 |
| 20260831114141 | 92 | 342 | 1.7 | 3.5 | 0.00 | 0.00 | 0.00 | 38 | 1016.5 |
| 20260831113220 | 91 | 26 | 1.7 | 4.3 | 0.00 | 0.00 | 0.00 | 38 | 1016.5 |
| 20260831112320 | 91 | 84 | 2.6 | 7.0 | 0.00 | 0.00 | 0.00 | 38 | 1016.6 |
| 20260831111420 | 91 | 83 | 1.7 | 7.0 | 0.00 | 0.00 | 0.00 | 38 | 1016.6 |
| 20260831110520 | 90 | 167 | 1.7 | 5.2 | 0.00 | 0.00 | 0.00 | 39 | 1016.7 |
| 20260831105641 | 89 | 19 | 1.7 | 4.3 | 0.00 | 0.00 | 0.00 | 40 | 1016.7 |
| 20260831104720 | 89 | 86 | 1.7 | 5.2 | 0.00 | 0.00 | 0.00 | 40 | 1016.7 |
| 20260831103841 | 89 | 84 | 1.7 | 5.2 | 0.00 | 0.00 | 0.00 | 40 | 1016.9 |
| 20260831102920 | 88 | 90 | 1.7 | 6.1 | 0.00 | 0.00 | 0.00 | 41 | 1016.8 |
| 20260831102020 | 88 | 108 | 1.7 | 6.1 | 0.00 | 0.00 | 0.00 | 41 | 1017.0 |
| 20260831101120 | 88 | 104 | 1.7 | 6.1 | 0.00 | 0.00 | 0.00 | 41 | 1017.1 |
| 20260831100220 | 88 | 110 | 1.7 | 6.1 | 0.00 | 0.00 | 0.00 | 41 | 1017.1 |
| 20260831095320 | 87 | 99 | 1.7 | 6.1 | 0.00 | 0.00 | 0.00 | 42 | 1016.9 |
| 20260831094420 | 86 | 102 | 1.7 | 5.2 | 0.00 | 0.00 | 0.00 | 44 | 1016.8 |
| 20260831093520 | 86 | 84 | 1.7 | 2.6 | 0.00 | 0.00 | 0.00 | 44 | 1016.8 |
| 20260831092620 | 85 | 100 | 0.9 | 5.2 | 0.00 | 0.00 | 0.00 | 45 | 1016.9 |
| 20260831091720 | 84 | 95 | 0.9 | 3.5 | 0.00 | 0.00 | 0.00 | 45 | 1016.9 |
| 20260831090841 | 84 | 91 | 1.7 | 3.5 | 0.00 | 0.00 | 0.00 | 47 | 1017.0 |
| 20260831085942 | 82 | 61 | 2.6 | 3.5 | 0.00 | 0.00 | 0.00 | 48 | 1016.9 |
| 20260831085020 | 81 | 104 | 2.6 | 5.2 | 0.00 | 0.00 | 0.00 | 49 | 1016.9 |
| 20260831084120 | 81 | 104 | 2.6 | 5.2 | 0.00 | 0.00 | 0.00 | 49 | 1017.0 |
| 20260831083220 | 81 | 61 | 0.9 | 3.5 | 0.00 | 0.00 | 0.00 | 49 | 1017.1 |
| 20260831082319 | 81 | 42 | 0.9 | 2.6 | 0.00 | 0.00 | 0.00 | 51 | 1017.0 |
| 20260831081420 | 81 | 44 | 0.9 | 2.6 | 0.00 | 0.00 | 0.00 | 53 | 1017.1 |
| 20260831080519 | 80 | 67 | 1.7 | 3.5 | 0.00 | 0.00 | 0.00 | 54 | 1017.0 |
| 20260831075619 | 79 | 65 | 1.7 | 3.5 | 0.00 | 0.00 | 0.00 | 55 | 1017.1 |
| 20260831074719 | 78 | 57 | 1.7 | 4.3 | 0.00 | 0.00 | 0.00 | 55 | 1017.0 |
| 20260831073819 | 78 | 46 | 1.7 | 3.5 | 0.00 | 0.00 | 0.00 | 56 | 1016.9 |
| 20260831072919 | 78 | 26 | 0.9 | 3.5 | 0.00 | 0.00 | 0.00 | 57 | 1016.8 |
| 20260831072019 | 77 | 23 | 0.9 | 2.6 | 0.00 | 0.00 | 0.00 | 58 | 1016.8 |
| 20260831071119 | 76 | 28 | 1.7 | 3.5 | 0.00 | 0.00 | 0.00 | 60 | 1016.8 |
| 20260831070219 | 76 | 33 | 1.7 | 3.5 | 0.00 | 0.00 | 0.00 | 60 | 1016.8 |
| 20260831065319 | 75 | 33 | 2.6 | 4.3 | 0.00 | 0.00 | 0.00 | 62 | 1016.7 |
| 20260831064440 | 74 | 36 | 2.6 | 4.3 | 0.00 | 0.00 | 0.00 | 63 | 1016.5 |
| 20260831063519 | 74 | 35 | 2.6 | 4.3 | 0.00 | 0.00 | 0.00 | 64 | 1016.4 |
| 20260831062619 | 74 | 52 | 1.7 | 4.3 | 0.00 | 0.00 | 0.00 | 65 | 1016.3 |
| 20260831061740 | 74 | 23 | 1.7 | 3.5 | 0.00 | 0.00 | 0.00 | 66 | 1016.2 |
| 20260831060840 | 74 | 13 | 1.7 | 3.5 | 0.00 | 0.00 | 0.00 | 66 | 1016.2 |
| 20260831055919 | 75 | 2 | 1.7 | 3.5 | 0.00 | 0.00 | 0.00 | 67 | 1016.2 |
| 20260831055019 | 75 | 355 | 1.7 | 3.5 | 0.00 | 0.00 | 0.00 | 67 | 1016.1 |
| 20260831054119 | 75 | 359 | 2.6 | 3.5 | 0.00 | 0.00 | 0.00 | 67 | 1016.1 |
| 20260831053219 | 75 | 4 | 2.6 | 3.5 | 0.00 | 0.00 | 0.00 | 67 | 1015.9 |
| 20260831052319 | 75 | 10 | 2.6 | 3.5 | 0.00 | 0.00 | 0.00 | 67 | 1015.8 |
| 20260831051419 | 75 | 341 | 1.7 | 4.3 | 0.00 | 0.00 | 0.00 | 68 | 1015.9 |
| 20260831050519 | 75 | 351 | 1.7 | 3.5 | 0.00 | 0.00 | 0.00 | 68 | 1015.9 |
| 20260831045619 | 76 | 351 | 1.7 | 2.6 | 0.00 | 0.00 | 0.00 | 68 | 1016.0 |
| 20260831044719 | 76 | 351 | 1.7 | 3.5 | 0.00 | 0.00 | 0.00 | 67 | 1016.0 |
| 20260831043819 | 76 | 346 | 1.7 | 3.5 | 0.00 | 0.00 | 0.00 | 67 | 1015.9 |
| 20260831042919 | 76 | 313 | 1.7 | 3.5 | 0.00 | 0.00 | 0.00 | 68 | 1016.0 |
| 20260831042019 | 76 | 306 | 1.7 | 2.6 | 0.00 | 0.00 | 0.00 | 69 | 1016.0 |
| 20260831041119 | 76 | 306 | 1.7 | 2.6 | 0.00 | 0.00 | 0.00 | 69 | 1016.1 |
| 20260831040219 | 75 | 299 | 1.7 | 3.5 | 0.00 | 0.00 | 0.00 | 70 | 1016.1 |
| 20260831035319 | 75 | 242 | 0.9 | 2.6 | 0.00 | 0.00 | 0.00 | 71 | 1016.1 |
| 20260831034419 | 74 | 235 | 0.9 | 1.7 | 0.00 | 0.00 | 0.00 | 72 | 1016.1 |
| 20260831033519 | 74 | 232 | 0.9 | 1.7 | 0.00 | 0.00 | 0.00 | 73 | 1016.1 |
| 20260831032619 | 74 | 232 | 0.0 | 0.9 | 0.00 | 0.00 | 0.00 | 74 | 1016.2 |
| 20260831031719 | 74 | 232 | 0.0 | 0.9 | 0.00 | 0.00 | 0.00 | 74 | 1016.2 |
| 20260831030819 | 73 | 232 | 0.9 | 1.7 | 0.00 | 0.00 | 0.00 | 73 | 1016.2 |
| 20260831025919 | 74 | 232 | 0.9 | 1.7 | 0.00 | 0.00 | 0.00 | 73 | 1016.3 |
| 20260831025019 | 74 | 232 | 0.9 | 2.6 | 0.00 | 0.00 | 0.00 | 73 | 1016.4 |
| 20260831024140 | 74 | 231 | 0.9 | 2.6 | 0.00 | 0.00 | 0.00 | 73 | 1016.4 |
| 20260831023240 | 74 | 229 | 0.9 | 2.6 | 0.00 | 0.00 | 0.00 | 72 | 1016.4 |
| 20260831022319 | 74 | 229 | 0.9 | 3.5 | 0.00 | 0.00 | 0.00 | 72 | 1016.4 |
| 20260831021440 | 74 | 229 | 0.9 | 2.6 | 0.00 | 0.00 | 0.00 | 72 | 1016.3 |
| 20260831020518 | 74 | 229 | 0.9 | 2.6 | 0.00 | 0.00 | 0.00 | 71 | 1016.3 |
| 20260831015619 | 74 | 229 | 0.9 | 2.6 | 0.00 | 0.00 | 0.00 | 71 | 1016.3 |
| 20260831014718 | 74 | 229 | 0.9 | 1.7 | 0.00 | 0.00 | 0.00 | 71 | 1016.3 |
| 20260831013818 | 75 | 229 | 0.9 | 1.7 | 0.00 | 0.00 | 0.00 | 70 | 1016.3 |
| 20260831012918 | 75 | 229 | 1.7 | 3.5 | 0.00 | 0.00 | 0.00 | 70 | 1016.3 |
| 20260831012018 | 75 | 232 | 0.9 | 3.5 | 0.00 | 0.00 | 0.00 | 69 | 1016.3 |
| 20260831011118 | 75 | 232 | 0.9 | 3.5 | 0.00 | 0.00 | 0.00 | 69 | 1016.3 |
| 20260831010218 | 75 | 232 | 1.7 | 2.6 | 0.00 | 0.00 | 0.00 | 68 | 1016.3 |
| 20260831005318 | 75 | 227 | 1.7 | 4.3 | 0.00 | 0.00 | 0.00 | 67 | 1016.2 |
| 20260831004418 | 76 | 213 | 0.9 | 3.5 | 0.00 | 0.00 | 0.00 | 66 | 1016.3 |
| 20260831003518 | 76 | 213 | 0.9 | 2.6 | 0.00 | 0.00 | 0.00 | 64 | 1016.2 |
| 20260831002639 | 76 | 202 | 0.9 | 2.6 | 0.00 | 0.00 | 0.00 | 64 | 1016.3 |
| 20260831001718 | 76 | 191 | 1.7 | 3.5 | 0.00 | 0.00 | 0.00 | 63 | 1016.2 |
| 20260831000839 | 77 | 197 | 1.7 | 3.5 | 0.00 | 0.00 | 0.00 | 62 | 1016.1 |
| 20260830235918 | 77 | 181 | 1.7 | 3.5 | 0.00 | 0.00 | 0.00 | 61 | 1016.1 |
| 20260830235018 | 77 | 178 | 1.7 | 3.5 | 0.00 | 0.00 | 0.00 | 59 | 1016.1 |
| 20260830234139 | 78 | 209 | 1.7 | 3.5 | 0.00 | 0.00 | 0.00 | 59 | 1016.1 |
| 20260830233218 | 78 | 209 | 0.9 | 2.6 | 0.00 | 0.00 | 0.00 | 58 | 1016.1 |
| 20260830232318 | 78 | 209 | 0.0 | 1.7 | 0.00 | 0.00 | 0.00 | 58 | 1015.9 |
| 20260830231418 | 78 | 209 | 0.9 | 1.7 | 0.00 | 0.00 | 0.00 | 58 | 1015.8 |
| 20260830230518 | 78 | 209 | 0.9 | 1.7 | 0.00 | 0.00 | 0.00 | 57 | 1015.8 |
| 20260830225618 | 79 | 209 | 0.9 | 1.7 | 0.00 | 0.00 | 0.00 | 57 | 1015.8 |
| 20260830224718 | 79 | 209 | 1.7 | 2.6 | 0.00 | 0.00 | 0.00 | 57 | 1015.7 |
| 20260830223818 | 79 | 209 | 1.7 | 2.6 | 0.00 | 0.00 | 0.00 | 56 | 1015.7 |
| 20260830222918 | 80 | 209 | 1.7 | 2.6 | 0.00 | 0.00 | 0.00 | 56 | 1015.6 |
| 20260830222018 | 80 | 209 | 1.7 | 3.5 | 0.00 | 0.00 | 0.00 | 55 | 1015.6 |
| 20260830221118 | 80 | 212 | 1.7 | 3.5 | 0.00 | 0.00 | 0.00 | 54 | 1015.6 |
| 20260830220218 | 81 | 215 | 1.7 | 5.2 | 0.00 | 0.00 | 0.00 | 54 | 1015.5 |
| 20260830215318 | 81 | 237 | 2.6 | 6.1 | 0.00 | 0.00 | 0.00 | 53 | 1015.5 |
| 20260830214418 | 82 | 230 | 2.6 | 6.1 | 0.00 | 0.00 | 0.00 | 51 | 1015.3 |
| 20260830213539 | 82 | 219 | 1.7 | 4.3 | 0.00 | 0.00 | 0.00 | 50 | 1015.4 |
| 20260830212618 | 83 | 224 | 3.5 | 7.0 | 0.00 | 0.00 | 0.00 | 50 | 1015.3 |
| 20260830211718 | 83 | 249 | 3.5 | 7.0 | 0.00 | 0.00 | 0.00 | 49 | 1015.3 |